Location: Belvedere Heights
(33.9836°N, 117.3109°W)
Time: 06:57:25
(UTC+00:00)

ARIANE 5 R/B - Pass Details

Date: 11 December 2023
Orbit: 747 x 794 km, 98.8° (Epoch: 25 February)

Event Time Altitude Azimuth Distance (km) Brightness Sun altitude
Rises 12:53:08 0° 7° (N) 3,298 5.7 -22.4°
Reaches altitude 10° 12:55:30 10° 4° (N) 2,367 4.9 -21.9°
Maximum altitude 13:00:36 56° 287° (WNW) 938 2.5 -20.9°
Drops below altitude 10° 13:05:41 10° 210° (SSW) 2,350 4.9 -19.9°
Sets 13:08:01 0° 206° (SSW) 3,272 5.7 -19.4°
